Location: Battersea Observatory
(44.4318°N, 76.3841°W)
Time: 11:54:10
(UTC-05:00)

N. Korean satellite - Visible Passes

Search period start: 03 December 2021 00:00
Search period end: 13 December 2021 00:00
Orbit: 447 x 495 km, 97.3° (Epoch: 02 December)

Date Brightness Start Highest point End Pass type
(mag) Time Alt. Az. Time Alt. Az. Time Alt. Az.
03 Dec 7.7 05:02:55 10° NNE 05:06:09 41° E 05:09:21 10° S visible
03 Dec 8.3 06:37:29 10° NW 06:38:58 12° WNW 06:40:27 10° W visible
03 Dec 9.1 17:11:45 10° SSW 17:14:45 25° W 17:17:43 10° NW visible
04 Dec 9.2 04:35:04 10° NE 04:37:29 18° E 04:39:54 10° SE visible
04 Dec 7.4 06:07:50 10° NNW 06:10:41 25° WNW 06:13:32 10° SW visible
05 Dec 6.3 05:38:57 10° N 05:42:18 60° WNW 05:45:37 10° SSW visible
06 Dec 7.1 05:10:27 10° NNE 05:13:46 53° E 05:17:04 10° S visible
06 Dec 8.5 06:46:06 10° WNW 06:46:30 10° WNW 06:46:53 10° WNW visible
06 Dec 9.5 17:19:42 10° SW 17:22:23 20° W 17:25:04 10° NW visible
07 Dec 8.9 04:42:23 10° NE 04:45:07 22° E 04:47:50 10° SSE visible
07 Dec 7.6 06:15:36 10° NNW 06:18:13 21° WNW 06:20:49 10° WSW visible
08 Dec 10.0 04:15:59 10° E 04:16:21 10° E 04:16:43 10° E visible
08 Dec 6.6 05:46:32 10° N 05:49:49 47° WNW 05:53:04 10° SSW visible
09 Dec 6.6 05:17:54 10° NNE 05:21:17 68° E 05:24:39 10° S visible
09 Dec 9.6 17:27:38 10° SW 17:29:57 17° W 17:32:15 10° NW visible
10 Dec 8.5 04:52:01 26° ENE 04:52:38 28° E 04:55:36 10° SSE visible
10 Dec 8.0 06:23:19 10° NNW 06:26:10 17° W 06:27:57 10° WSW visible
10 Dec 8.3 16:57:59 10° SSW 17:01:14 36° W 17:04:27 10° NNW visible
11 Dec 9.7 04:23:52 13° E 04:23:52 13° E 04:25:27 10° ESE visible
11 Dec 7.2 05:57:59 32° WSW 05:57:59 32° WSW 06:00:23 10° SW visible
12 Dec 7.0 05:29:36 47° S 05:29:36 47° S 05:32:07 10° SSW visible
12 Dec 9.8 17:35:39 10° WSW 17:37:25 13° W 17:39:12 10° WNW visible
